Stations météo

Publicité
Chartres, France (7143): Température de l'air & dewpoint: 12.01.2018 13:00:00 - 18.01.2018 13:00:00 (CET)Chartres, France (7143): Température de l'air 5cm: 12.01.2018 13:00:00 - 18.01.2018 13:00:00 (CET)Chartres, France (7143): Température de l'air -20cm & Température de l'air -100cm: 12.01.2018 13:00:00 - 18.01.2018 13:00:00 (CET)Chartres, France (7143): Vitesse du vent & gusts: 12.01.2018 13:00:00 - 18.01.2018 13:00:00 (CET)Chartres, France (7143): Direction du vent: 12.01.2018 13:00:00 - 18.01.2018 13:00:00 (CET)Chartres, France (7143): reduced air pressure: 12.01.2018 13:00:00 - 18.01.2018 13:00:00 (CET)Chartres, France (7143): visibility: 12.01.2018 13:00:00 - 18.01.2018 13:00:00 (CET)Chartres, France (7143): Ensoleillement: 12.01.2018 13:00:00 - 18.01.2018 13:00:00 (CET)Chartres, France (7143): Quantités de précipitations: 12.01.2018 13:00:00 - 18.01.2018 13:00:00 (CET)
Date & Time tt [°C] td [°C] tt 5cm [°C] tt -20cm [°C] tt -100cm [°C] ff [km/h] ff [knt] fx [km/h] fx [knt] dd ppp [hPa] vv [km] sd [min] rr [mm]
18.01.2018 13:00:00 - - - - - - - - - - - - - -
18.01.2018 12:00:00 11,2 9,5 10,3 7,2 9,3 20 11 42 23 WSW 1008,0 20 0 0,0
18.01.2018 11:00:00 10,4 9,3 9,8 7,1 9,3 21 11 47 25 WSW 1008,1 15 0 0,2
18.01.2018 10:00:00 10,1 8,7 9,3 7,1 9,3 20 11 48 26 WSW 1007,9 17 0 0,0
18.01.2018 09:00:00 9,8 8,4 9,1 7,1 9,3 21 11 45 24 WSW 1007,7 18 0 0,0
18.01.2018 08:00:00 9,9 8,2 8,7 7,0 9,3 23 12 62 33 WSW 1007,3 20 0 0,0
18.01.2018 07:00:00 9,5 7,8 8,2 7,0 9,3 23 12 53 29 WSW 1007,2 20 0 0,0
18.01.2018 06:00:00 8,7 7,3 7,6 6,9 9,3 25 14 53 28 SW 1007,7 16 0 0,2
18.01.2018 05:00:00 8,1 6,9 7,2 6,9 9,3 26 14 63 34 SW 1008,4 14 0 0,2
18.01.2018 04:00:00 7,8 6,3 6,7 6,9 9,3 26 14 57 31 WSW 1009,3 20 0 0,0
18.01.2018 03:00:00 7,1 5,9 5,9 6,9 9,3 24 13 48 26 SW 1010,4 9 0 0,4
18.01.2018 02:00:00 6,4 4,7 5,4 6,9 9,3 19 11 43 23 SW 1011,7 17 0 0,0
18.01.2018 01:00:00 6,0 4,0 5,2 6,9 9,3 16 9 33 18 SW 1013,6 20 0 0,0
18.01.2018 00:00:00 6,0 3,0 5,4 6,9 9,3 19 10 35 19 SW 1014,9 20 0 0,0
17.01.2018 23:00:00 5,9 2,5 5,3 7,0 9,3 14 8 33 18 SW 1015,8 20 0 0,0
17.01.2018 22:00:00 5,8 2,4 4,4 7,0 9,3 16 8 27 15 WSW 1016,2 20 0 0,0
17.01.2018 21:00:00 5,5 2,8 4,1 7,0 9,3 9 5 44 24 WSW 1016,6 20 0 0,2
17.01.2018 20:00:00 5,3 2,3 3,9 7,0 9,3 14 7 31 17 WSW 1017,2 20 0 0,0
17.01.2018 19:00:00 5,1 1,9 4,4 7,0 9,3 15 8 35 19 WSW 1017,4 20 0 0,0
17.01.2018 18:00:00 5,6 1,9 4,8 7,0 9,3 17 9 47 26 W 1017,1 20 0 0,0
17.01.2018 17:00:00 6,5 2,2 4,8 7,0 9,3 21 12 42 23 WSW 1016,9 20 41 0,0
17.01.2018 16:00:00 6,6 2,7 4,3 6,9 9,3 14 8 51 28 W 1016,6 20 12 0,2
17.01.2018 15:00:00 7,5 1,6 7,4 6,9 9,3 17 9 48 26 W 1016,1 20 35 0,0
17.01.2018 14:00:00 7,5 2,0 8,4 6,9 9,3 19 10 49 27 W 1016,0 20 56 0,0
17.01.2018 13:00:00 6,7 1,6 8,0 6,9 9,3 22 12 51 27 W 1015,7 20 60 0,0
17.01.2018 12:00:00 5,8 1,3 7,3 6,9 9,4 22 12 46 25 W 1015,5 20 60 0,0
17.01.2018 11:00:00 4,8 0,9 5,5 7,0 9,3 20 11 40 22 W 1014,4 20 60 0,0
17.01.2018 10:00:00 4,1 0,2 2,7 7,0 9,3 17 9 43 23 W 1013,4 20 53 0,0
17.01.2018 09:00:00 3,4 0,4 1,9 7,1 9,3 17 9 41 22 W 1012,0 20 0 0,0
17.01.2018 08:00:00 2,4 0,5 1,4 7,2 9,3 15 8 46 25 W 1010,8 20 0 0,0
17.01.2018 07:00:00 2,7 0,1 1,8 7,2 9,3 28 15 67 36 W 1008,9 20 0 0,0
17.01.2018 06:00:00 3,2 -0,3 1,8 7,3 9,3 19 10 50 27 W 1008,2 20 0 0,0
17.01.2018 05:00:00 3,4 0,8 1,8 7,4 9,3 18 10 44 24 W 1007,2 20 0 0,0
17.01.2018 04:00:00 3,2 0,9 1,9 7,4 9,3 20 11 49 27 W 1006,5 20 0 0,4
17.01.2018 03:00:00 3,9 1,1 2,9 7,5 9,4 16 9 51 27 W 1006,4 20 0 0,0
17.01.2018 02:00:00 3,5 1,2 2,9 7,5 9,4 21 11 53 28 WSW 1005,1 20 0 0,0
17.01.2018 01:00:00 4,6 1,6 3,6 7,6 9,3 20 11 53 28 W 1004,8 20 0 0,0
17.01.2018 00:00:00 5,2 1,9 3,3 7,6 9,3 25 14 51 27 WNW 1004,2 20 0 0,0
16.01.2018 23:00:00 4,5 2,5 3,5 7,6 9,4 17 9 47 26 W 1003,5 15 0 0,8
16.01.2018 22:00:00 6,0 3,2 4,7 7,7 9,4 15 8 47 26 W 1003,0 20 0 0,2
16.01.2018 21:00:00 6,8 3,4 5,2 7,7 9,4 22 12 43 23 W 1003,4 20 0 0,4
16.01.2018 20:00:00 6,9 3,9 5,4 7,7 9,4 17 9 40 21 WSW 1003,1 20 0 0,0
16.01.2018 19:00:00 7,4 3,1 6,5 7,7 9,4 13 7 48 26 W 1003,3 20 0 0,0
16.01.2018 18:00:00 7,7 3,0 6,8 7,7 9,4 21 11 41 22 W 1004,0 20 0 0,0
16.01.2018 17:00:00 7,9 3,2 7,4 7,6 9,3 17 9 55 30 W 1004,0 20 5 0,0
16.01.2018 16:00:00 8,4 4,0 7,9 7,6 9,4 24 13 47 25 W 1003,8 20 2 0,0
16.01.2018 15:00:00 8,5 5,4 7,4 7,5 9,4 23 12 55 30 W 1003,8 20 15 0,0
16.01.2018 14:00:00 8,9 5,1 8,2 7,5 9,4 22 12 56 31 W 1004,5 20 27 0,0
16.01.2018 13:00:00 9,4 5,6 6,0 7,5 9,4 16 9 44 24 W 1004,8 17 4 0,6
16.01.2018 12:00:00 8,9 4,9 8,6 7,5 9,4 14 8 48 26 WNW 1005,4 20 2 0,0
16.01.2018 11:00:00 8,7 4,5 7,1 7,4 9,4 17 9 44 24 W 1005,2 20 26 0,0
16.01.2018 10:00:00 8,3 5,2 6,4 7,4 9,4 21 11 53 29 W 1004,6 18 9 0,0
16.01.2018 09:00:00 8,1 5,2 6,6 7,4 9,4 20 11 53 28 W 1003,4 20 0 1,2
16.01.2018 08:00:00 8,9 6,5 7,3 7,4 9,4 20 11 41 22 WSW 1002,5 20 0 0,0
16.01.2018 07:00:00 8,7 6,7 7,4 7,4 9,4 23 13 49 26 WSW 1002,4 20 0 0,2
16.01.2018 06:00:00 7,9 6,7 6,9 7,4 9,4 16 8 32 17 WSW 1002,6 17 0 0,6
16.01.2018 05:00:00 8,0 6,0 6,8 7,4 9,4 12 7 32 17 WSW 1003,1 18 0 0,0
16.01.2018 04:00:00 8,4 6,7 7,4 7,3 9,4 17 9 40 21 W 1003,4 20 0 0,4
16.01.2018 03:00:00 8,4 6,5 7,2 7,3 9,4 14 8 36 19 WSW 1003,0 20 0 0,2
16.01.2018 02:00:00 8,8 6,6 7,3 7,3 9,4 16 9 45 24 W 1003,0 20 0 2,8
16.01.2018 01:00:00 8,8 7,4 7,3 7,2 9,4 16 9 36 20 W 1003,2 11 0 1,0
16.01.2018 00:00:00 8,1 6,4 6,8 7,3 9,4 13 7 29 16 WSW 1003,9 19 0 0,0
15.01.2018 23:00:00 8,0 6,5 6,7 7,2 9,4 14 7 28 15 WSW 1004,1 20 0 1,0
15.01.2018 22:00:00 8,5 6,5 7,4 7,2 9,4 11 6 36 19 WSW 1004,0 20 0 0,0
15.01.2018 21:00:00 8,5 5,6 7,8 7,2 9,4 16 9 39 21 WSW 1003,9 20 0 0,0
15.01.2018 20:00:00 9,8 6,9 8,2 7,1 9,4 16 9 47 25 W 1003,3 20 0 0,0
15.01.2018 19:00:00 9,8 7,7 8,4 7,1 9,4 16 9 38 20 WSW 1002,7 20 0 0,0
15.01.2018 18:00:00 9,3 8,4 8,2 7,1 9,4 15 8 47 25 WSW 1002,2 20 0 0,4
15.01.2018 17:00:00 8,5 7,4 7,4 7,0 9,4 27 15 51 28 SW 1002,2 18 0 0,4
15.01.2018 16:00:00 7,6 6,7 6,7 7,0 9,4 29 16 55 30 SSW 1003,0 6 0 1,0
15.01.2018 15:00:00 6,9 5,8 6,2 7,0 9,4 31 17 61 33 SSW 1004,3 14 0 0,8
15.01.2018 14:00:00 6,4 5,3 6,1 7,0 9,5 28 15 64 35 SSW 1006,1 7 0 2,4
15.01.2018 13:00:00 6,9 5,4 - - - 24 13 52 28 SSW 1008,7 17 - -
15.01.2018 12:00:00 6,2 4,7 5,7 6,9 9,4 19 10 46 25 SSW 1011,1 20 0 0,2
15.01.2018 11:00:00 5,9 4,2 5,6 6,9 9,5 22 12 43 23 SSW 1012,7 20 0 0,0
15.01.2018 10:00:00 5,7 4,0 5,3 6,9 9,5 18 10 40 22 SSW 1013,8 20 0 0,0
15.01.2018 09:00:00 5,3 4,1 4,1 6,9 9,5 20 11 42 23 SW 1014,4 20 0 0,0
15.01.2018 08:00:00 4,3 3,6 4,0 6,9 9,5 15 8 34 18 SSW 1015,1 9 0 0,0
15.01.2018 07:00:00 4,3 3,7 3,8 6,9 9,5 15 8 29 15 SSW 1015,9 8 0 0,0
15.01.2018 06:00:00 3,8 3,5 3,1 7,0 9,5 13 7 22 12 SSW 1016,2 7 0 0,0
15.01.2018 05:00:00 3,0 2,7 3,0 7,0 9,5 7 4 20 11 SSW 1017,2 1,1 0 0,0
15.01.2018 04:00:00 3,0 2,7 2,9 7,0 9,5 9 5 21 11 SW 1018,1 0,8 0 0,0
15.01.2018 03:00:00 3,4 3,1 3,3 7,0 9,5 11 6 23 12 SSW 1018,5 0,9 0 0,0
15.01.2018 02:00:00 3,4 3,1 3,4 6,9 9,5 11 6 20 11 SSW 1018,9 0,5 0 0,0
15.01.2018 01:00:00 4,0 3,6 4,0 6,9 9,5 9 5 19 10 SW 1019,9 0,5 0 0,0
15.01.2018 00:00:00 4,5 4,1 4,3 6,9 9,5 7 4 21 12 WSW 1020,0 0,7 0 0,0
14.01.2018 23:00:00 4,8 4,1 4,8 6,9 9,5 7 4 21 11 SW 1019,8 6 0 0,0
14.01.2018 22:00:00 4,9 4,0 4,8 6,9 9,5 9 5 18 10 SW 1019,8 11 0 0,0
14.01.2018 21:00:00 4,8 3,9 4,6 6,8 9,5 4 2 12 6 SW 1019,4 7 0 0,0
14.01.2018 20:00:00 4,6 3,6 4,5 6,8 9,5 3 2 6 4 SSW 1019,2 6 0 0,0
14.01.2018 19:00:00 4,5 3,5 4,6 6,8 9,5 0 0 5 3 N 1019,4 5 0 0,0
14.01.2018 18:00:00 4,7 3,5 4,7 6,7 9,5 0 0 4 2 N 1018,8 7 0 0,0
14.01.2018 17:00:00 4,6 3,6 4,8 6,7 9,5 0 0 12 7 N 1018,0 7 0 0,0
14.01.2018 16:00:00 5,0 3,2 5,5 6,6 9,5 7 4 11 6 W 1017,8 7 0 0,0
14.01.2018 15:00:00 5,9 2,7 6,7 6,6 9,5 3 2 8 4 WSW 1017,6 9 26 0,0
14.01.2018 14:00:00 4,4 1,9 5,2 6,6 9,5 3 2 6 4 W 1017,6 8 6 0,0
14.01.2018 13:00:00 3,2 1,6 4,9 6,6 9,5 2 1 6 3 NNE 1017,9 6 0 0,0
14.01.2018 12:00:00 3,4 1,4 6,6 6,6 9,5 2 1 8 4 ENE 1018,1 6 57 0,0
14.01.2018 11:00:00 2,1 1,2 0,1 6,7 9,5 2 1 6 3 E 1017,7 3,9 47 0,0
14.01.2018 10:00:00 -0,3 -0,7 -3,2 6,8 9,6 2 1 5 3 NNE 1017,6 2,3 0 0,0
14.01.2018 09:00:00 -1,2 -1,9 -3,5 6,8 9,6 0 0 6 3 N 1016,9 2,1 0 0,0
14.01.2018 08:00:00 -0,9 -1,6 -3,3 6,9 9,6 4 2 5 3 N 1016,8 2,0 0 0,0
14.01.2018 07:00:00 -0,3 -1,0 -2,7 6,9 9,5 2 1 8 4 NNE 1016,3 2,5 0 0,0
14.01.2018 06:00:00 -0,2 -1,2 -2,3 7,0 9,6 0 0 4 2 N 1016,1 2,6 0 0,0
14.01.2018 05:00:00 0,9 0,0 -0,3 7,0 9,6 3 1 9 5 NE 1015,9 3,9 0 0,0
14.01.2018 04:00:00 1,4 0,4 0,7 7,0 9,5 4 2 9 5 NE 1015,8 4,1 0 0,0
14.01.2018 03:00:00 1,7 0,5 1,4 7,1 9,6 5 3 12 6 E 1015,9 5 0 0,0
14.01.2018 02:00:00 1,9 0,7 1,4 7,1 9,6 5 3 8 5 E 1016,2 5 0 0,0
14.01.2018 01:00:00 2,0 0,8 1,7 7,2 9,6 5 3 14 8 E 1016,1 6 0 0,0
14.01.2018 00:00:00 2,3 1,1 1,6 7,2 9,5 7 4 11 6 E 1016,3 6 0 0,0
13.01.2018 23:00:00 2,2 1,2 0,8 7,2 9,5 2 1 7 4 NE 1016,5 4,1 0 0,0
13.01.2018 22:00:00 2,1 1,1 0,4 7,3 9,6 5 3 9 5 NNE 1016,8 4,7 0 0,0
13.01.2018 21:00:00 2,5 1,0 0,8 7,4 9,6 3 1 9 5 ENE 1017,1 7 0 0,0
13.01.2018 20:00:00 3,0 1,2 2,4 7,4 9,6 8 4 17 9 E 1017,2 10 0 0,0
13.01.2018 19:00:00 3,0 1,2 3,0 7,4 9,6 9 5 27 15 ESE 1017,6 12 0 0,0
13.01.2018 18:00:00 3,0 1,0 3,0 7,4 9,6 17 9 32 18 E 1017,8 12 0 0,0
13.01.2018 17:00:00 3,1 1,3 3,2 7,4 9,6 16 9 29 15 E 1017,8 11 0 0,0
13.01.2018 16:00:00 3,5 1,7 3,7 7,4 9,6 14 8 30 16 E 1017,9 12 0 0,0
13.01.2018 15:00:00 3,9 1,9 3,8 7,4 9,6 14 8 29 16 E 1018,0 13 0 0,0
13.01.2018 14:00:00 3,8 2,0 3,9 7,4 9,6 16 9 27 15 ESE 1019,0 12 0 0,0
13.01.2018 13:00:00 3,7 2,1 4,0 7,4 9,6 16 9 27 15 ESE 1019,7 12 0 0,0
13.01.2018 12:00:00 3,6 2,9 3,8 7,4 9,6 13 7 26 14 ESE 1020,3 9 10 0,0
13.01.2018 11:00:00 3,2 3,1 3,2 7,4 9,6 14 7 26 14 ESE 1021,0 7 0 0,0
13.01.2018 10:00:00 3,2 3,1 2,6 7,5 9,6 13 7 25 14 ESE 1021,1 1,2 0 0,0
13.01.2018 09:00:00 2,4 2,3 2,1 7,5 9,6 13 7 26 14 ESE 1021,2 0,4 0 0,0
13.01.2018 08:00:00 2,0 1,9 2,1 7,5 9,6 10 6 20 11 ESE 1021,6 0,3 0 0,0
13.01.2018 07:00:00 2,6 2,3 2,7 7,6 9,6 11 6 21 11 SE 1021,6 0,5 0 0,0
13.01.2018 06:00:00 3,2 3,1 3,3 7,6 9,6 7 4 16 9 SSE 1022,1 0,3 0 0,0
13.01.2018 05:00:00 3,3 3,2 3,3 7,7 9,6 9 5 19 10 SE 1022,2 0,3 0 0,0
13.01.2018 04:00:00 3,4 3,3 2,9 7,7 9,6 9 5 17 9 SE 1023,0 0,2 0 0,0
13.01.2018 03:00:00 3,1 2,8 0,4 7,8 9,6 11 6 20 11 ESE 1023,2 0,6 0 0,0
13.01.2018 02:00:00 1,9 1,3 -0,9 7,8 9,6 5 3 7 4 E 1023,9 0,1 0 0,0
13.01.2018 01:00:00 1,8 0,8 -1,0 7,9 9,6 3 2 5 3 E 1024,4 0,2 0 0,0
13.01.2018 00:00:00 3,3 2,1 0,7 7,9 9,6 0 0 7 4 N 1024,6 2,0 0 0,0
12.01.2018 23:00:00 4,8 3,8 4,0 7,9 9,6 4 2 6 3 SE 1025,0 3,7 0 0,0
12.01.2018 22:00:00 5,2 4,0 4,8 7,9 9,6 3 2 5 3 NNW 1025,6 5 0 0,0
12.01.2018 21:00:00 5,3 3,9 5,0 7,9 9,6 0 0 8 5 N 1025,7 6 0 0,0
12.01.2018 20:00:00 5,4 4,2 5,3 7,9 9,6 6 3 10 5 E 1025,8 7 0 0,0
12.01.2018 19:00:00 5,5 4,1 5,4 7,9 9,6 5 3 10 5 NE 1025,8 7 0 0,0
12.01.2018 18:00:00 5,6 3,8 5,4 7,9 9,6 0 0 5 3 N 1025,9 11 0 0,0
12.01.2018 17:00:00 5,7 3,9 5,7 7,9 9,6 4 2 8 4 E 1025,6 14 0 0,0
12.01.2018 16:00:00 5,7 3,9 6,1 7,8 9,6 6 3 8 4 NNE 1025,9 14 0 0,0
12.01.2018 15:00:00 5,7 3,7 6,3 7,8 9,6 0 0 9 5 N 1026,0 15 0 0,0
12.01.2018 14:00:00 5,7 4,0 6,6 7,7 9,6 2 1 13 7 NE 1025,7 11 0 0,0
12.01.2018 13:00:00 5,8 4,3 6,8 7,7 9,6 7 4 15 8 ESE 1026,0 13 0 0,0

tt = Température de l'air
td = dewpoint
tt 5cm = Température de l'air 5cm
tt -20cm = Température de l'air -20cm
tt -100cm = Température de l'air -100cm
ff = Vitesse du vent
fx = gusts
dd = Direction du vent
ppp = reduced air pressure
vv = visibility
sd = Ensoleillement
rr = Quantités de précipitations

stations d'obs. à proximité